STARLINK-2029 (48320 NORAD) Tracking and Keplerian Element Data

This shows tracking and keplerian element data for the satellite.

Feedback or suggestion? Click here.




ElementValue
Catalog48320
NameSTARLINK-2029
Epoch Orbit1491
Epoch Day211.09918716
Epoch Year2021
RAAN99.5453
Inclination53.0546
Eccentricity0.0002248
Argument of Perigee75.9151
Mean Anonmoly284.2087
Mean Motion15.06396078
Decay Rate-6.1E-07
L11 48320U 21036AW 21211.09918716 -.00000061 00000-0 14839-4 0 9994
L22 48320 53.0546 99.5453 0002248 75.9151 284.2087 15.06396078 14912

Live tracking and technical data element details for STARLINK-2029 (NORAD 48320). STARLINK-2029 can be tracked NOW for your location showing map with azimuth and elevation plus other details from your city location.

Track the satellite on the map from your city or location and see movement details for azimuth, elevation, latitude, longitude, range, height, and movement on the map or in text.







IsCatalogInMostPopularTable: catalog: 48320, numindb: 38
Update: records affected: 1



GetName: 48320 STARLINK-2029

Hit Count: updated at: Sat, 31 Jul 2021 15:10:44 GMT